• In Netherlands
  • List of Countries
  • For 7 days
  • Water Temperature
  • Satellite Maps
  • Weather Map
  • Weather Widgets
  • user-avatar
    Login

    Hourly Weather Nesebyr

    Today, 17 November, Friday

    Time Temperature Precipitation Wind Pressure Humidity
    00:00 +10°C° 0.1 mm 3 mps 765 mmHg 87%
    01:00 +10°C° 0.1 mm 3 mps 764 mmHg 87%
    02:00 +10°C° 0 mm 3 mps 764 mmHg 86%
    03:00 +10°C° 0.1 mm 3 mps 764 mmHg 86%
    04:00 +10°C° 0.1 mm 3 mps 764 mmHg 87%
    05:00 +10°C° 0.1 mm 3 mps 764 mmHg 87%
    06:00 +10°C° 0.1 mm 3 mps 764 mmHg 88%
    07:00 +10°C° 0.1 mm 3 mps 763 mmHg 88%
    08:00 +11°C° 0 mm 3 mps 763 mmHg 88%
    09:00 +11°C° 0.1 mm 3 mps 763 mmHg 88%
    10:00 +12°C° 0.1 mm 3 mps 763 mmHg 87%
    11:00 +13°C° 0.1 mm 4 mps 763 mmHg 86%
    12:00 +13°C° 0.1 mm 4 mps 763 mmHg 86%
    13:00 +13°C° 0.1 mm 4 mps 763 mmHg 85%
    14:00 +14°C° 0.1 mm 4 mps 762 mmHg 84%
    15:00 +13°C° 0.1 mm 4 mps 762 mmHg 86%
    16:00 +13°C° 0.1 mm 4 mps 762 mmHg 88%
    17:00 +13°C° 0.1 mm 3 mps 762 mmHg 90%
    18:00 +13°C° 0.1 mm 3 mps 761 mmHg 91%
    19:00 +13°C° 0.1 mm 3 mps 761 mmHg 93%
    20:00 +12°C° 0.1 mm 3 mps 761 mmHg 95%
    21:00 +13°C° 0.2 mm 2 mps 761 mmHg 95%
    22:00 +13°C° 0.2 mm 2 mps 761 mmHg 96%
    23:00 +13°C° 0.2 mm 2 mps 761 mmHg 96%

    Tomorrow, 18 November, Saturday

    Time Temperature Precipitation Wind Pressure Humidity
    00:00 +13°C° 0.5 mm 2 mps 761 mmHg 96%
    01:00 +13°C° 0.5 mm 2 mps 760 mmHg 96%
    02:00 +13°C° 0.5 mm 1 mps 760 mmHg 97%
    03:00 +13°C° 0.6 mm 1 mps 760 mmHg 97%
    04:00 +13°C° 0.6 mm 1 mps 760 mmHg 96%
    05:00 +13°C° 0.6 mm 1 mps 759 mmHg 96%
    06:00 +13°C° 0.4 mm 1 mps 759 mmHg 96%
    07:00 +13°C° 0.4 mm 1 mps 759 mmHg 96%
    08:00 +13°C° 0.4 mm 1 mps 759 mmHg 96%
    09:00 +14°C° 0.4 mm 1 mps 759 mmHg 92%
    10:00 +15°C° 0.4 mm 1 mps 759 mmHg 88%
    11:00 +15°C° 0.4 mm 1 mps 759 mmHg 84%
    12:00 +16°C° 0.1 mm 1 mps 759 mmHg 81%
    13:00 +16°C° 0.1 mm 1 mps 758 mmHg 78%
    14:00 +16°C° 0.1 mm 1 mps 758 mmHg 75%
    15:00 +16°C° 0.1 mm 1 mps 758 mmHg 78%
    16:00 +15°C° 0.1 mm 1 mps 758 mmHg 81%
    17:00 +14°C° 0.1 mm 2 mps 758 mmHg 83%
    18:00 +14°C° 0.3 mm 2 mps 758 mmHg 85%
    19:00 +14°C° 0.3 mm 2 mps 758 mmHg 86%
    20:00 +12°C° 0.3 mm 3 mps 758 mmHg 88%
    21:00 +12°C° 0.7 mm 3 mps 757 mmHg 89%
    22:00 +12°C° 0.7 mm 3 mps 757 mmHg 89%
    23:00 +12°C° 0.7 mm 3 mps 757 mmHg 90%

    Day after tomorrow, 19 November, Sunday

    Time Temperature Precipitation Wind Pressure Humidity
    00:00 +11°C° 1 mm 3 mps 757 mmHg 91%
    01:00 +11°C° 1 mm 3 mps 757 mmHg 91%
    02:00 +11°C° 1 mm 3 mps 757 mmHg 91%
    03:00 +11°C° 1 mm 3 mps 757 mmHg 91%
    04:00 +10°C° 1 mm 3 mps 756 mmHg 90%
    05:00 +10°C° 1 mm 3 mps 756 mmHg 90%
    06:00 +10°C° 0.9 mm 3 mps 756 mmHg 89%
    07:00 +10°C° 0.9 mm 3 mps 756 mmHg 88%
    08:00 +9°C° 0.9 mm 3 mps 756 mmHg 88%
    09:00 +10°C° 1.3 mm 3 mps 756 mmHg 84%
    10:00 +10°C° 1.3 mm 3 mps 756 mmHg 80%
    11:00 +10°C° 1.3 mm 3 mps 756 mmHg 76%
    12:00 +11°C° 0.4 mm 3 mps 756 mmHg 71%
    13:00 +12°C° 0.4 mm 3 mps 756 mmHg 66%
    14:00 +13°C° 0.4 mm 3 mps 756 mmHg 61%
    15:00 +12°C° 0 mm 3 mps 756 mmHg 63%
    16:00 +11°C° 0 mm 3 mps 756 mmHg 64%
    17:00 +12°C° 0 mm 2 mps 756 mmHg 66%
    18:00 +10°C° 0 mm 3 mps 756 mmHg 67%
    19:00 +10°C° 0 mm 3 mps 757 mmHg 67%
    20:00 +9°C° 0 mm 3 mps 757 mmHg 67%
    21:00 +9°C° 0 mm 3 mps 757 mmHg 68%
    22:00 +9°C° 0 mm 3 mps 757 mmHg 69%
    23:00 +8°C° 0 mm 3 mps 758 mmHg 69%

    20 November, Monday

    Time Temperature Precipitation Wind Pressure Humidity
    00:00 +8°C° 0 mm 3 mps 758 mmHg 69%
    01:00 +8°C° 0 mm 3 mps 758 mmHg 69%
    02:00 +8°C° 0 mm 2 mps 758 mmHg 69%
    03:00 +8°C° 0.2 mm 3 mps 758 mmHg 70%
    04:00 +7°C° 0.2 mm 3 mps 757 mmHg 71%
    05:00 +7°C° 0.2 mm 3 mps 757 mmHg 72%
    06:00 +7°C° 0.4 mm 3 mps 757 mmHg 73%
    07:00 +7°C° 0.4 mm 3 mps 758 mmHg 75%
    08:00 +6°C° 0.4 mm 4 mps 758 mmHg 76%
    09:00 +6°C° 1.4 mm 4 mps 758 mmHg 77%
    10:00 +6°C° 1.4 mm 5 mps 758 mmHg 77%
    11:00 +6°C° 1.4 mm 5 mps 758 mmHg 77%
    12:00 +5°C° 0.9 mm 6 mps 758 mmHg 77%
    13:00 +5°C° 0.9 mm 7 mps 758 mmHg 76%
    14:00 +5°C° 0.9 mm 7 mps 758 mmHg 76%
    15:00 +5°C° 0.3 mm 7 mps 758 mmHg 76%
    16:00 +5°C° 0.3 mm 7 mps 758 mmHg 76%
    17:00 +5°C° 0.3 mm 7 mps 758 mmHg 76%
    18:00 +5°C° 0.1 mm 7 mps 759 mmHg 76%
    19:00 +4°C° 0.1 mm 7 mps 759 mmHg 76%
    20:00 +4°C° 0.1 mm 7 mps 760 mmHg 76%
    21:00 +4°C° 0.1 mm 7 mps 760 mmHg 76%
    22:00 +4°C° 0.1 mm 7 mps 760 mmHg 75%
    23:00 +4°C° 0.1 mm 7 mps 761 mmHg 75%

    21 November, Tuesday

    Time Temperature Precipitation Wind Pressure Humidity
    00:00 +3°C° 0 mm 6 mps 761 mmHg 75%
    01:00 +3°C° 0 mm 6 mps 761 mmHg 76%
    02:00 +3°C° 0 mm 6 mps 761 mmHg 76%
    03:00 +2°C° 0 mm 6 mps 761 mmHg 77%
    04:00 +2°C° 0 mm 6 mps 761 mmHg 79%
    05:00 +1°C° 0 mm 6 mps 761 mmHg 80%
    06:00 +1°C° 0 mm 5 mps 762 mmHg 80%
    07:00 +1°C° 0 mm 5 mps 762 mmHg 81%
    08:00 +1°C° 0 mm 5 mps 763 mmHg 81%
    09:00 +3°C° 0 mm 5 mps 763 mmHg 74%
    10:00 +5°C° 0 mm 5 mps 763 mmHg 67%
    11:00 +6°C° 0 mm 5 mps 763 mmHg 61%
    12:00 +7°C° 0 mm 4 mps 763 mmHg 57%
    13:00 +8°C° 0 mm 4 mps 762 mmHg 53%
    14:00 +8°C° 0 mm 4 mps 762 mmHg 49%
    15:00 +8°C° 0 mm 3 mps 762 mmHg 53%
    16:00 +8°C° 0 mm 2 mps 762 mmHg 57%
    17:00 +7°C° 0 mm 2 mps 762 mmHg 61%
    18:00 +6°C° 0 mm 2 mps 762 mmHg 62%
    19:00 +6°C° 0 mm 2 mps 762 mmHg 63%
    20:00 +6°C° 0 mm 2 mps 762 mmHg 64%
    21:00 +6°C° 0 mm 2 mps 762 mmHg 65%
    22:00 +5°C° 0 mm 2 mps 762 mmHg 65%
    23:00 +4°C° 0 mm 3 mps 762 mmHg 66%

    22 November, Wednesday

    Time Temperature Precipitation Wind Pressure Humidity
    00:00 +4°C° 0 mm 3 mps 762 mmHg 67%
    01:00 +4°C° 0 mm 3 mps 762 mmHg 69%
    02:00 +4°C° 0 mm 3 mps 761 mmHg 70%
    03:00 +4°C° 0 mm 3 mps 761 mmHg 71%
    04:00 +4°C° 0 mm 3 mps 761 mmHg 71%
    05:00 +4°C° 0 mm 3 mps 761 mmHg 72%
    06:00 +4°C° 0 mm 3 mps 762 mmHg 73%
    07:00 +4°C° 0 mm 3 mps 762 mmHg 73%
    08:00 +4°C° 0 mm 3 mps 762 mmHg 73%
    09:00 +7°C° 0 mm 3 mps 762 mmHg 68%
    10:00 +8°C° 0 mm 4 mps 763 mmHg 63%
    11:00 +11°C° 0 mm 4 mps 763 mmHg 59%
    12:00 +12°C° 0 mm 4 mps 763 mmHg 58%
    13:00 +13°C° 0 mm 4 mps 763 mmHg 57%
    14:00 +13°C° 0 mm 3 mps 763 mmHg 56%
    15:00 +12°C° 0 mm 3 mps 763 mmHg 61%
    16:00 +11°C° 0 mm 3 mps 764 mmHg 66%
    17:00 +10°C° 0 mm 2 mps 764 mmHg 71%
    18:00 +10°C° 0 mm 2 mps 765 mmHg 73%
    19:00 +9°C° 0 mm 2 mps 765 mmHg 75%
    20:00 +9°C° 0 mm 2 mps 766 mmHg 77%
    21:00 +9°C° 0 mm 1 mps 766 mmHg 78%
    22:00 +9°C° 0 mm 1 mps 766 mmHg 80%
    23:00 +9°C° 0 mm 1 mps 767 mmHg 82%
    Show more